• în Republica Moldova
  • Lista ţărilor
  • Pe 7 zile
  • Temperatura apei
  • Hartă satelitară
  • Meteo pe hartă
  • Widget-uri
  • user-avatar
    Intrare

    Meteo pe oră la Ischgl

    Astăzi, 24 Aprilie, Luni

    Timp Temperatura Precipitaţii Vânt Presiune Umiditate
    00:00 -9°C° 0 mm 1 m/s 571 mmHg 93%
    01:00 -9°C° 0 mm 1 m/s 571 mmHg 91%
    02:00 -9°C° 0 mm 1 m/s 571 mmHg 90%
    03:00 -9°C° 0 mm 2 m/s 570 mmHg 88%
    04:00 -9°C° 0 mm 2 m/s 570 mmHg 86%
    05:00 -8°C° 0 mm 2 m/s 571 mmHg 86%
    06:00 -6°C° 0 mm 2 m/s 572 mmHg 86%
    07:00 -5°C° 0 mm 2 m/s 572 mmHg 86%
    08:00 -3°C° 0 mm 2 m/s 573 mmHg 84%
    09:00 +1°C° 0 mm 1 m/s 574 mmHg 82%
    10:00 +3°C° 0 mm 1 m/s 574 mmHg 80%
    11:00 +4°C° 0 mm 1 m/s 574 mmHg 78%
    12:00 +4°C° 0 mm 1 m/s 574 mmHg 76%
    13:00 +5°C° 0 mm 1 m/s 574 mmHg 74%
    14:00 +5°C° 0,1 mm 1 m/s 574 mmHg 75%
    15:00 +5°C° 0,1 mm 1 m/s 574 mmHg 76%
    16:00 +5°C° 0,1 mm 1 m/s 573 mmHg 76%
    17:00 +3°C° 0,1 mm 1 m/s 572 mmHg 82%
    18:00 +1°C° 0,1 mm 1 m/s 571 mmHg 88%
    19:00 -1°C° 0,1 mm 1 m/s 570 mmHg 94%
    20:00 -1°C° 0 mm 1 m/s 570 mmHg 95%
    21:00 -3°C° 0 mm 2 m/s 570 mmHg 95%
    22:00 -4°C° 0 mm 2 m/s 570 mmHg 95%
    23:00 -4°C° 0 mm 2 m/s 570 mmHg 95%

    Mâine, 25 Aprilie, Marţi

    Timp Temperatura Precipitaţii Vânt Presiune Umiditate
    00:00 -4°C° 0 mm 2 m/s 570 mmHg 94%
    01:00 -4°C° 0 mm 2 m/s 569 mmHg 94%
    02:00 -4°C° 0 mm 2 m/s 569 mmHg 94%
    03:00 -5°C° 0 mm 2 m/s 568 mmHg 94%
    04:00 -5°C° 0 mm 2 m/s 568 mmHg 93%
    05:00 -4°C° 0 mm 2 m/s 568 mmHg 92%
    06:00 -3°C° 0 mm 2 m/s 568 mmHg 90%
    07:00 -2°C° 0 mm 2 m/s 569 mmHg 88%
    08:00 -1°C° 0,1 mm 2 m/s 569 mmHg 84%
    09:00 +1°C° 0,1 mm 2 m/s 570 mmHg 80%
    10:00 +3°C° 0,1 mm 2 m/s 570 mmHg 76%
    11:00 +3°C° 0,3 mm 2 m/s 570 mmHg 77%
    12:00 +3°C° 0,3 mm 2 m/s 570 mmHg 77%
    13:00 +4°C° 0,3 mm 2 m/s 570 mmHg 78%
    14:00 +3°C° 0,7 mm 2 m/s 569 mmHg 81%
    15:00 +3°C° 0,7 mm 2 m/s 569 mmHg 84%
    16:00 +2°C° 0,7 mm 2 m/s 569 mmHg 87%
    17:00 +1°C° 1,4 mm 2 m/s 568 mmHg 90%
    18:00 -1°C° 1,4 mm 2 m/s 568 mmHg 93%
    19:00 0°C° 1,4 mm 1 m/s 568 mmHg 97%
    20:00 -1°C° 1,2 mm 1 m/s 567 mmHg 97%
    21:00 -1°C° 1,2 mm 1 m/s 567 mmHg 97%
    22:00 -3°C° 1,2 mm 2 m/s 567 mmHg 97%
    23:00 -4°C° 0,8 mm 2 m/s 567 mmHg 97%

    Poimâine, 26 Aprilie, Miercuri

    Timp Temperatura Precipitaţii Vânt Presiune Umiditate
    00:00 -4°C° 0,8 mm 2 m/s 566 mmHg 97%
    01:00 -4°C° 0,8 mm 2 m/s 566 mmHg 97%
    02:00 -4°C° 0,6 mm 2 m/s 566 mmHg 97%
    03:00 -5°C° 0,6 mm 2 m/s 566 mmHg 97%
    04:00 -5°C° 0,6 mm 2 m/s 565 mmHg 97%
    05:00 -5°C° 1,2 mm 2 m/s 565 mmHg 96%
    06:00 -5°C° 1,2 mm 2 m/s 565 mmHg 96%
    07:00 -2°C° 1,2 mm 1 m/s 566 mmHg 96%
    08:00 -4°C° 1,4 mm 2 m/s 566 mmHg 96%
    09:00 -4°C° 1,4 mm 2 m/s 566 mmHg 96%
    10:00 -3°C° 1,4 mm 2 m/s 566 mmHg 97%
    11:00 -4°C° 1,7 mm 2 m/s 566 mmHg 97%
    12:00 -4°C° 1,7 mm 2 m/s 566 mmHg 97%
    13:00 -4°C° 1,7 mm 2 m/s 566 mmHg 98%
    14:00 -4°C° 1,3 mm 2 m/s 566 mmHg 98%
    15:00 -4°C° 1,3 mm 2 m/s 566 mmHg 98%
    16:00 -4°C° 1,3 mm 2 m/s 566 mmHg 98%
    17:00 -5°C° 0,7 mm 2 m/s 565 mmHg 98%
    18:00 -3°C° 0,7 mm 1 m/s 565 mmHg 98%
    19:00 -4°C° 0,7 mm 1 m/s 565 mmHg 98%
    20:00 -4°C° 0,8 mm 1 m/s 565 mmHg 98%
    21:00 -6°C° 0,8 mm 1 m/s 565 mmHg 98%
    22:00 -7°C° 0,8 mm 1 m/s 565 mmHg 98%
    23:00 -7°C° 0,7 mm 1 m/s 564 mmHg 98%

    27 Aprilie, Joi

    Timp Temperatura Precipitaţii Vânt Presiune Umiditate
    00:00 -7°C° 0,7 mm 1 m/s 564 mmHg 98%
    01:00 -8°C° 0,7 mm 1 m/s 564 mmHg 98%
    02:00 -8°C° 0,5 mm 1 m/s 564 mmHg 98%
    03:00 -8°C° 0,5 mm 1 m/s 564 mmHg 98%
    04:00 -8°C° 0,5 mm 1 m/s 564 mmHg 98%
    05:00 -8°C° 0,4 mm 1 m/s 564 mmHg 98%
    06:00 -7°C° 0,4 mm 1 m/s 565 mmHg 97%
    07:00 -7°C° 0,4 mm 1 m/s 565 mmHg 97%
    08:00 -6°C° 0,4 mm 1 m/s 566 mmHg 96%
    09:00 -4°C° 0,4 mm 1 m/s 566 mmHg 95%
    10:00 -6°C° 0,4 mm 2 m/s 567 mmHg 94%
    11:00 -6°C° 0,8 mm 2 m/s 567 mmHg 95%
    12:00 -6°C° 0,8 mm 2 m/s 567 mmHg 95%
    13:00 -6°C° 0,8 mm 2 m/s 567 mmHg 96%
    14:00 -6°C° 0,8 mm 2 m/s 567 mmHg 96%
    15:00 -6°C° 0,8 mm 2 m/s 567 mmHg 96%
    16:00 -7°C° 0,8 mm 2 m/s 567 mmHg 96%
    17:00 -7°C° 0,7 mm 2 m/s 567 mmHg 97%
    18:00 -8°C° 0,7 mm 2 m/s 567 mmHg 97%
    19:00 -8°C° 0,7 mm 2 m/s 566 mmHg 97%
    20:00 -9°C° 0,7 mm 2 m/s 567 mmHg 97%
    21:00 -10°C° 0,7 mm 2 m/s 567 mmHg 97%
    22:00 -10°C° 0,7 mm 2 m/s 567 mmHg 98%
    23:00 -10°C° 0,6 mm 2 m/s 566 mmHg 98%

    28 Aprilie, Vineri

    Timp Temperatura Precipitaţii Vânt Presiune Umiditate
    00:00 -10°C° 0,6 mm 2 m/s 566 mmHg 98%
    01:00 -10°C° 0,6 mm 1 m/s 566 mmHg 97%
    02:00 -10°C° 0,4 mm 1 m/s 566 mmHg 97%
    03:00 -12°C° 0,4 mm 2 m/s 566 mmHg 97%
    04:00 -12°C° 0,4 mm 2 m/s 566 mmHg 97%
    05:00 -10°C° 0,3 mm 2 m/s 566 mmHg 97%
    06:00 -10°C° 0,3 mm 2 m/s 567 mmHg 97%
    07:00 -10°C° 0,3 mm 2 m/s 567 mmHg 97%
    08:00 -9°C° 0,2 mm 2 m/s 568 mmHg 96%
    09:00 -8°C° 0,2 mm 2 m/s 568 mmHg 95%
    10:00 -7°C° 0,2 mm 2 m/s 569 mmHg 95%
    11:00 -7°C° 0,3 mm 2 m/s 569 mmHg 94%
    12:00 -7°C° 0,3 mm 2 m/s 569 mmHg 94%
    13:00 -6°C° 0,3 mm 2 m/s 569 mmHg 94%
    14:00 -6°C° 0,2 mm 2 m/s 569 mmHg 94%
    15:00 -6°C° 0,2 mm 2 m/s 569 mmHg 93%
    16:00 -6°C° 0,2 mm 2 m/s 569 mmHg 93%
    17:00 -8°C° 0,1 mm 2 m/s 569 mmHg 94%
    18:00 -9°C° 0,1 mm 2 m/s 569 mmHg 95%
    19:00 -9°C° 0,1 mm 1 m/s 568 mmHg 96%
    20:00 -11°C° 0 mm 1 m/s 568 mmHg 97%
    21:00 -13°C° 0 mm 1 m/s 567 mmHg 97%
    22:00 -15°C° 0 mm 1 m/s 566 mmHg 97%
    23:00 -16°C° 0 mm 1 m/s 566 mmHg 97%

    29 Aprilie, Sâmbătă

    Timp Temperatura Precipitaţii Vânt Presiune Umiditate
    00:00 -16°C° 0 mm 1 m/s 566 mmHg 97%
    01:00 -16°C° 0 mm 1 m/s 566 mmHg 97%
    02:00 -17°C° 0 mm 1 m/s 566 mmHg 97%
    03:00 -17°C° 0 mm 1 m/s 565 mmHg 96%
    04:00 -17°C° 0 mm 1 m/s 565 mmHg 96%
    05:00 -14°C° 0 mm 1 m/s 567 mmHg 95%
    06:00 -11°C° 0 mm 1 m/s 569 mmHg 94%
    07:00 -9°C° 0 mm 1 m/s 570 mmHg 93%
    08:00 -7°C° 0 mm 1 m/s 571 mmHg 92%
    09:00 -4°C° 0 mm 1 m/s 572 mmHg 92%
    10:00 -2°C° 0 mm 1 m/s 572 mmHg 91%
    11:00 -2°C° 0,1 mm 1 m/s 572 mmHg 91%
    12:00 -1°C° 0,1 mm 1 m/s 572 mmHg 92%
    13:00 -1°C° 0,1 mm 1 m/s 572 mmHg 92%
    14:00 -1°C° 0,1 mm 1 m/s 572 mmHg 92%
    15:00 -1°C° 0,1 mm 1 m/s 572 mmHg 92%
    16:00 -1°C° 0,1 mm 1 m/s 571 mmHg 92%
    17:00 -2°C° 0 mm 1 m/s 571 mmHg 93%
    18:00 -4°C° 0 mm 1 m/s 570 mmHg 95%
    19:00 -6°C° 0 mm 1 m/s 569 mmHg 97%
    20:00 -8°C° 0 mm 1 m/s 568 mmHg 97%
    21:00 -11°C° 0 mm 1 m/s 567 mmHg 98%
    22:00 -13°C° 0 mm 1 m/s 566 mmHg 98%
    23:00 -13°C° 0 mm 1 m/s 566 mmHg 97%
    Arată mai mult